Regional Weather Roundup
Issued by NWS

Home | Current Version | Previous Version | Graphics & Text | Print | Product List | Glossary Off
Versions: 1 2 3 4 5 6 7 8 9 10 11 12 13 14 15 16 17 18 19 20 21 22 23 24 25 26 27 28 29 30 31 32 33 34 35 36 37 38 39 40 41 42 43 44 45 46 47 48 49 50

000
ASUS43 KTOP 250408
RWRKS

WEATHER ROUNDUP FOR KANSAS
NATIONAL WEATHER SERVICE GOODLAND KS
1100 PM CDT FRI MAR 24 2017

NOTE:  "FAIR" INDICATES FEW OR NO CLOUDS BELOW 12,000 FEET WITH NO
SIGNIFICANT WEATHER AND/OR OBSTRUCTIONS TO VISIBILITY.

KSZ001>006-013>018-027>032-041>047-250500-
NORTHWEST KANSAS

CITY           SKY/WX    TMP DP  RH WIND       PRES   REMARKS
GOODLAND       CLOUDY    39  37  92 N14       30.07S WCI  31
HAYS             N/A     42  38  85 N18       29.99S
HILL CITY      CLOUDY    42  40  92 N17G24    30.04S
RUSSELL        CLOUDY    41  39  93 N17       29.96F
$$

KSZ061>065-074>080-084>089-250500-
SOUTHWEST KANSAS

CITY           SKY/WX    TMP DP  RH WIND       PRES   REMARKS
DODGE CITY     CLOUDY    41  39  93 N22G30    29.99R
ELKHART          N/A     41  28  60 N21         N/A
GARDEN CITY    CLOUDY    42  38  85 N18       30.04R
GREAT BEND     CLOUDY    42  39  89 N23G30    29.96S
LIBERAL        CLOUDY    45  36  70 N24G32    30.03R
PRATT          CLOUDY    40  38  91 N25       29.93F WCI  30
$$

KSZ066>073-081>083-090>101-250500-
SOUTHEAST KANSAS

CITY           SKY/WX    TMP DP  RH WIND       PRES   REMARKS
CHANUTE        RAIN      53  49  86 NW16G31   29.84R
COFFEYVILLE    CLOUDY    59  56  89 SE7       29.76F
HUTCHINSON     CLOUDY    45  43  93 N18G30    29.90R
MEDICINE LODGE   N/A     47  41  80 N25G35    29.89S
NEWTON         CLOUDY    48  47  96 N17       29.87R FOG
PARSONS        CLOUDY    57  50  77 NW29      29.83R
WICHITA INTL   LGT RAIN  52  49  89 N13       29.86R
WICHITA JABRA  CLOUDY    53  48  83 NW13      29.86R
WICHITA MCCONL LGT RAIN  53  49  85 NW12      29.85R
WINFIELD       CLOUDY    55  48  77 N21G28    29.82S
$$

KSZ007>012-019>026-033>040-048>060-102>105-250500-
NORTHEAST KANSAS

CITY           SKY/WX    TMP DP  RH WIND       PRES   REMARKS
CONCORDIA      CLOUDY    42  39  89 N15G28    29.95S
EMPORIA        CLOUDY    51  51 100 NW10      29.83F
LAWRENCE       CLOUDY    56  55  97 NW7       29.80F
MANHATTAN      CLOUDY    47  44  90 N9G22     29.87F
MARYSVILLE     DRIZZLE   43  41  93 N21G26    29.92F
OLATHE IND     CLOUDY    58  54  86 W7        29.81F
OLATHE EXE     CLOUDY    56  56 100 E5        29.79F
SALINA         CLOUDY    46  43  89 N21       29.92S
TOPEKA BILLARD LGT RAIN  54  54 100 N20G30    29.80F
TOPEKA FORBES  CLOUDY    55  53  93 NW17      29.80F
$$



USA.gov is the U.S. government's official web portal to all federal, state and local government web resources and services.